Regional Weather Roundup
Issued by NWS

Home | Current Version | Previous Version | Text Only | Print | Product List | Glossary On
Versions: 1 2 3 4 5 6 7 8 9 10 11 12 13 14 15 16 17 18 19 20 21 22 23 24 25 26 27 28 29 30 31 32 33 34 35 36 37 38 39 40 41 42 43 44 45 46 47 48 49 50
000
ASUS42 KTBW 301810
RWRFL
FLORIDA REGIONAL WEATHER ROUNDUP
NATIONAL WEATHER SERVICE TAMPA BAY RUSKIN FL
200 PM EDT SAT AUG 30 2014

NOTE: "FAIR" INDICATES FEW OR NO CLOUDS BELOW 12,000 FEET WITH NO
SIGNIFICANT WEATHER AND/OR OBSTRUCTIONS TO VISIBILITY.


FLZ001>010-012>015-112-114-115-301900-
PANHANDLE FLORIDA

CITY           SKY/WX    TMP DP  RH WIND       PRES   REMARKS
PENSACOLA      SUNNY     89  76  65 SE15      30.08F HX 100
PENSACOLA NAS  PTSUNNY   91  78  65 SE16      30.07F HX 106
MILTON NAS     MOSUNNY   91  73  55 S16G22    30.07F HX  99
CRESTVIEW      MOSUNNY   95  72  47 SE9G18    30.09F HX 103
DUKE FIELD     PTSUNNY   92  76  59 S14G21    30.07F HX 103
VALPARAISO     PTSUNNY   91  77  63 S13       30.09F HX 104
MARY ESTHER    MOSUNNY   91  73  56 SE14G21   30.07F HX  98
TRI COUNTY     MOCLDY    93  75  55 VRB5      30.09F HX 104
PANAMA CITY    FAIR      92  71  50 S14       30.08F HX  98
TYNDALL AFB    SUNNY     90  77  67 S13       30.09F HX 103
APALACHICOLA   MOSUNNY   89  77  67 SE12      30.10F HX 101

STATION/POSITION SKY/WX   TEMP    WIND        PRES    WAVE   SWELL
                          AIR SEA DIR/SP/G            HT/PER HT/PER
                          (F)     (DEG/KT/KT) (MB)    (FT/S) (FT/S)
30.1N   87.6W              85 86  150/ 14/ 16 1018.3F   3/ 6
28.8N   86.0W              85 86  120/ 14/ 16 1018.4    3/ 4
PANAMA CITY BEAC           86 86  160/ 11/ 12 1019.0F
CAPE SAN BLAS    NOT AVBL
TOWER C                    84     140/ 11/ 11 1019.0F
28.5N   84.5W              85 87  130/ 12/ 14 1018.9F   2/ 5

$$
FLZ011-016>038-118-127-128-134-139-239-301900-
NORTH FLORIDA

CITY           SKY/WX    TMP DP  RH WIND       PRES   REMARKS
MARIANNA       SUNNY     91  75  59 S8        30.09F HX 101
TALLAHASSEE    PTSUNNY   94  73  50 SW9       30.10F HX 103
PERRY          MOSUNNY   90  72  55 NW3       30.11F HX  96
CROSS CITY       N/A     91  74  57 S6        30.09F HX 100
LAKE CITY      PTSUNNY   88  73  62 E5        30.11F HX  96
GAINESVILLE    MOSUNNY   90  75  61 MISG      30.11F HX 100
MAYPORT NAS    PTSUNNY   87  75  67 NE8       30.13S HX  96
JACKSONVILLE   PTSUNNY   88  75  65 E7        30.11F HX  97
JAX NAS        MOSUNNY   94  70  45 VRB3      30.12F HX 100
JAX CRAIG      SUNNY     89  75  63 NE8       30.12F HX  99
JAX CECIL      SUNNY     91  73  55 N3        30.11F HX 100
FERNANDINA BEA FAIR      86  73  66 NE7       30.12F
ST AUGUSTINE   SUNNY     86  77  74 E9        30.12F HX  97

STATION/POSITION SKY/WX   TEMP    WIND        PRES    WAVE   SWELL
                          AIR SEA DIR/SP/G            HT/PER HT/PER
                          (F)     (DEG/KT/KT) (MB)    (FT/S) (FT/S)
SHELL POINT                87     150/  6/  7   N/A
KEATON BEACH               85     210/  5/  7 1019.7F
CEDAR KEY                  85     170/  5/  7 1020.5F
FERNANDINA                 85 84   90/  4/  9 1019.8F
30.7N   81.3W                 86                N/A     2/ 8
MAYPORT                    82 84   70/  7/  9   N/A
31.4N   80.9W              81 85  150/ 10/ 12 1020.7F   2/ 8   2/ 8
ST AUGUSTINE               82      90/  8/  9 1020.7F

$$
FLZ040-043>046-052-053-057-058-063-144-301900-
INTERIOR CENTRAL FLORIDA

CITY           SKY/WX    TMP DP  RH WIND       PRES   REMARKS
OCALA          MOSUNNY   88  72  58 S6        30.11F
LEESBURG       SUNNY     91  72  53 S3        30.11F HX  98
SANFORD        MOSUNNY   92  73  53 NE5       30.10F HX 100
ORLANDO EXEC   PTSUNNY   91  74  57 VRB5      30.10F HX 100
ORLANDO INTL   MOSUNNY   90  75  61 E7        30.10F HX 100
KISSIMMEE      MOSUNNY   90  75  62 S6        30.11F HX 100
WINTER HAVEN   SUNNY     91  70  49 VRB5      30.11F HX  96
LAKELAND       MOSUNNY   90  72  55 CALM      30.11F HX  96
BARTOW         PTSUNNY   90  72  55 SE6       30.11F HX  96
OKEECHOBEE     MOSUNNY   91  77  62 MISG      30.10F HX 105

$$
FLZ041-047-054-059-064-141-147-301900-
EAST CENTRAL FLORIDA

CITY           SKY/WX    TMP DP  RH WIND       PRES   REMARKS
ORMOND BEACH   MOSUNNY   88  73  62 E6        30.11  HX  96
DAYTONA BEACH  MOSUNNY   91  76  61 E8        30.11F HX 103
DELAND         PTCLDY    90  73  58 CALM      30.12F HX  98
NEW SMYRNA BEA MOSUNNY   88  77  70 E10       30.13S HX 100
JFK SPACE CTR  PTSUNNY   89  76  65 VRB5      30.11F HX  99
TITUSVILLE     MOSUNNY   88  75  66 E7        30.12F HX  97
CAPE CANAVERAL PTSUNNY   87  74  64 SE6       30.10F HX  96
PATRICK AFB    PTSUNNY   86  77  75 E9        30.11F HX  96
MELBOURNE      PTSUNNY   88  77  69 E7        30.10F HX 100
VERO BEACH     SUNNY     87  77  72 E9        30.11F HX  99
FT PIERCE      SUNNY     89  75  63 E13       30.10F HX  99
STUART         PTSUNNY   88  68  51 E14       30.13S

STATION/POSITION SKY/WX   TEMP    WIND        PRES    WAVE   SWELL
                          AIR SEA DIR/SP/G            HT/PER HT/PER
                          (F)     (DEG/KT/KT) (MB)    (FT/S) (FT/S)
28.5N   80.2W              83 85  140/  4/  4 1020.4F
28.9N   78.5W              83 87   20/  4/  4 1020.7F
TRIDENT PIER               88 85   80/  5/  7 1019.5F
28.4N   80.5W                 84                N/A     2/ 8
27.6N   80.2W                 85                N/A     2/ 8

$$
FLZ050-056-061-142-242-148-248-149-249-151-251-155-255-
160-260-301900-
WEST CENTRAL FLORIDA

CITY           SKY/WX    TMP DP  RH WIND       PRES   REMARKS
CRYSTAL RIVER  MOCLDY    91  70  49 E5        30.10F HX  97
INVERNESS      FAIR      91  72  52 E5        30.11F HX  98
BROOKSVILLE    MOSUNNY   92  74  55 VRB6      30.11F HX 101
ZEPHYRHILLS    FAIR      91  70  49 SE6       30.11F HX  97
CLEARWATER     MOSUNNY   92  75  57 E9        30.09F HX 103
TAMPA INTL     MOSUNNY   92  72  51 SE6       30.09F HX  99
TAMPA EXEC     PTSUNNY   93  72  49 E7        30.10F HX 100
PLANT CITY     MOSUNNY   93  73  52 E6        30.12F HX 102
MACDILL AFB    MOSUNNY   94  79  61 VRB7      30.09F HX 111
ST PETERSBURG  SUNNY     91  75  59 E7        30.07F HX 101
SARASOTA       MOSUNNY   94  72  48 E12       30.07F HX 102
VENICE           N/A    N/A N/A N/A MISG        N/A

STATION/POSITION SKY/WX   TEMP    WIND        PRES    WAVE   SWELL
                          AIR SEA DIR/SP/G            HT/PER HT/PER
                          (F)     (DEG/KT/KT) (MB)    (FT/S) (FT/S)
CEDAR KEY                  85     170/  5/  7 1020.5F
28.5N   84.5W              85 87  130/ 12/ 14 1018.9F   2/ 5
27.3N   84.3W                 87                N/A     3/ 5
CLEARWATER BEACH           90 87  100/  5/  9 1018.7F
MIDDLE TAMPA BAY           89     330/  5/  6 1019.1F
VENICE                     87 88  200/  9/ 11 1018.1F

$$
FLZ066-069-070-075>078-162-262-165-265-301900-
SOUTHWEST FLORIDA AND KEYS

CITY           SKY/WX    TMP DP  RH WIND       PRES   REMARKS
PUNTA GORDA    MOSUNNY   91  75  59 SE8       30.09F HX 101
FT MYERS       MOSUNNY   93  74  53 SE9       30.07F HX 103
SOUTHWEST INTL MOSUNNY   91  74  57 E7        30.07F HX 100
NAPLES         MOSUNNY   93  74  53 E13       30.07F HX 103
MARCO ISLAND   PTCLDY    95  72  46 SE13      30.07F HX 103
MARATHON       MOSUNNY   91  77  63 E14G23    30.06F HX 104
KEY WEST NAS   PTSUNNY   91  76  61 E20       30.05F HX 103
KEY WEST INTL  SUNNY     91  76  61 E21G26    30.06F HX 103

STATION/POSITION SKY/WX   TEMP    WIND        PRES    WAVE   SWELL
                          AIR SEA DIR/SP/G            HT/PER HT/PER
                          (F)     (DEG/KT/KT) (MB)    (FT/S) (FT/S)
VENICE                     87 88  200/  9/ 11 1018.1F
NAPLES                     90     120/  7/ 12 1018.8F
DRY TORTUGAS               87     110/ 19/ 21 1017.3F
NW FL BAY                  87     120/ 15/ 17 1018.8F
SAND KEY                   86     110/ 20/ 24 1017.5F
SOMBRERO KEY               86     110/ 21/ 24 1018.2F
LONG KEY                   86 87  120/ 17/ 20 1019.5F
MOLASSES REEF              85 88  120/ 18/ 20 1018.3F

$$
FLZ067-068-071>074-168-172>174-301900-
SOUTHEAST FLORIDA

CITY           SKY/WX    TMP DP  RH WIND       PRES   REMARKS
W PALM BEACH   PTSUNNY   88  76  67 E15       30.10F HX  99
FT LAUDER-EXEC MOSUNNY   90  74  59 E15       30.09F HX  99
FT LAUDERDALE  PTSUNNY   91  74  57 SE15      30.09F HX 100
POMPANO BEACH  MOSUNNY   92  74  55 E15G21    30.10F HX 101
PEMBROKE PINES MOSUNNY   91  74  57 E16G22    30.10F HX 100
OPA LOCKA      SUNNY     92  73  53 SE15      30.09F HX 100
MIAMI          MOSUNNY   91  73  55 SE14G24   30.09F HX  99
WEST KENDALL   SUNNY     92  73  53 E13       30.09F HX 100
HOMESTEAD      SUNNY     90  75  62 E15       30.08F HX 100

STATION/POSITION SKY/WX   TEMP    WIND        PRES    WAVE   SWELL
                          AIR SEA DIR/SP/G            HT/PER HT/PER
                          (F)     (DEG/KT/KT) (MB)    (FT/S) (FT/S)
PORT EVERGLADES            88     100/  4/ 11 1019.1
VIRGINIA KEY               86 87  100/  9/ 12   N/A
LAKE WORTH                 85 87  110/ 11/ 14 1019.5S
FOWEY ROCKS                86 87  100/ 13/ 15 1019.2F
SETTLEMENT POINT           85      90/  9/ 10 1020.4F

$$



USA.gov is the U.S. government's official web portal to all federal, state and local government web resources and services.